Location: Columbia
(38.9520°N, 92.3340°W)
Time: 14:48:11
(UTC-05:00)

Cosmos 1603 - Visible Passes

Search period start: 23 June 2018 00:00
Search period end: 03 July 2018 00:00
Orbit: 831 x 859 km, 71.0° (Epoch: 22 June)

Date Brightness Start Highest point End Pass type
(mag) Time Alt. Az. Time Alt. Az. Time Alt. Az.
23 Jun 6.2 21:38:24 10° WNW 21:41:26 15° W 21:44:28 10° SW visible
24 Jun 6.3 21:24:20 10° WNW 21:27:31 15° W 21:30:42 10° SW visible
25 Jun 6.3 21:10:16 10° WNW 21:13:36 16° W 21:16:56 10° SW visible
